Regional Weather Roundup
Issued by NWS

Home | Current Version | Previous Version | Text Only | Print | Product List | Glossary Off
Versions: 1 2 3 4 5 6 7 8 9 10 11 12 13 14 15 16 17 18 19 20 21 22 23 24 25 26 27 28 29 30 31 32 33 34 35 36 37 38 39 40 41 42 43 44 45 46 47 48 49 50

000
ASUS43 KFSD 151702
RWRSD

WEATHER ROUNDUP FOR SOUTH DAKOTA
NATIONAL WEATHER SERVICE SIOUX FALLS SD
1100 AM CST SUN JAN 15 2017

NOTE: "FAIR" INDICATES FEW OR NO CLOUDS BELOW 12,000 FEET WITH NO
SIGNIFICANT WEATHER AND/OR OBSTRUCTIONS TO VISIBILITY.


SDZ001>005-009-010-012>017-151800-
NORTHWEST AND NORTH CENTRAL SOUTH DAKOTA

CITY           SKY/WX    TMP DP  RH WIND       PRES   REMARKS
BUFFALO          N/A     18  11  74 W6        30.02F WCI  10
FAITH            N/A     18  13  80 W5        30.12F WCI  11
MOBRIDGE       CLOUDY     3  -4  72 SE8       30.13F WCI -10
$$

SDZ012>016-024>037-041>051-057-063-072>074-151800-
SOUTHWEST AND SOUTH CENTRAL SOUTH DAKOTA

CITY           SKY/WX    TMP DP  RH WIND       PRES   REMARKS
RAPID CTY ARPT CLOUDY    19   6  57 SE5       30.13R WCI  12
PIERRE         CLOUDY     6   1  80 W9        30.20S WCI  -8
CUSTER         CLOUDY    36  15  42 VRB3      30.09R
ELLSWORTH AFB  CLOUDY    19   3  50 W6        30.11S WCI  11
PHILIP         CLOUDY    10   4  76 NW6       30.18S WCI   0
PINE RIDGE     CLOUDY    19  14  81 CALM      30.14F
SPEARFISH      FAIR      25   7  46 CALM      30.10F
WINNER         FAIR      27  19  72 CALM      30.20R
$$

SDZ004>011-016>023-039-040-151800-
NORTHEAST SOUTH DAKOTA

CITY           SKY/WX    TMP DP  RH WIND       PRES   REMARKS
ABERDEEN       CLOUDY     6   0  76 S6        30.21F WCI  -4
WATERTOWN      CLOUDY    13   9  84 S9        30.20F WCI   1
BROOKINGS      CLOUDY    18  13  80 SE9       30.24F WCI   7
SISSETON         N/A     28  19  69 SW9       30.18F WCI  19
$$

SDZ017-020-022-023-036>040-048>070-151800-
SOUTHEAST SOUTH DAKOTA

CITY           SKY/WX    TMP DP  RH WIND       PRES   REMARKS
SIOUX FALLS    MOSUNNY   24  17  74 NE6       30.28S WCI  17
HURON          CLOUDY    15  11  83 S5        30.23F WCI   8
CHAMBERLAIN    CLOUDY    19  14  81 CALM      30.22R
MITCHELL       SUNNY     24  17  74 S9        30.25F WCI  14
YANKTON        CLOUDY    30  21  69 S5        30.28F WCI  25
$$

ABBREVIATIONS USED IN REMARKS
   TC - TEMPERATURE IN CELSIUS
  WCI - WIND CHILL INDEX
   HX - HEAT INDEX
  VSB - VISIBILITY





USA.gov is the U.S. government's official web portal to all federal, state and local government web resources and services.